This demonstration page uses our WeatherBlox Daily Observations layout. Learn more.

Left ArrowRight Arrow

36.17497, -115.13722

Hourly Observations for August 9, 2017

Temp ( °F °C ) Dew Point ( °F °C ) Humidity (%) Winds ( mph kmh ) Pressure ( in mb ) Visibility ( mi km ) Precip ( " mm )
12:53 am 00:53 Clear 88 31.1 40 4.4 18 18 NE 5 7 29.81 1010 10 16.0934 N/A
1:53 am 01:53 Clear 88 31.1 42 5.6 20 20 NW 5 7 29.82 1010 10 16.0934 N/A
2:53 am 02:53 Clear 84 28.9 45 7.2 25 25 N 5 7 29.82 1010 10 16.0934 N/A
3:53 am 03:53 Clear 82 27.8 45 7.2 27 27 N 7 11 29.83 1010 10 16.0934 N/A
4:53 am 04:53 Clear 83 28.3 43 6.1 24 24 WNW 6 9 29.84 1010 10 16.0934 N/A
5:53 am 05:53 Clear 81 27.2 44 6.7 27 27 NNW 5 7 29.85 1011 10 16.0934 N/A
6:53 am 06:53 Sunny 82 27.8 44 6.7 26 26 NNW 5 7 29.86 1011 10 16.0934 N/A
7:53 am 07:53 Sunny 86 30 44 6.7 23 23 NNE 3 6 29.87 1012 10 16.0934 N/A
8:53 am 08:53 Sunny 89 31.7 41 5 19 19 N N/A 29.88 1012 10 16.0934 N/A
9:53 am 09:53 Sunny 92 33.3 41 5 17 17 SE 5 7 29.88 1012 10 16.0934 N/A
10:53 am 10:53 Sunny 95 35 42 5.6 16 16 SSE 6 9 29.88 1012 10 16.0934 N/A
11:53 am 11:53 Sunny 98 36.7 39 3.9 13 13 SE 12 19 29.86 1011 10 16.0934 N/A
12:53 pm 12:53 Sunny 102 38.9 36 2.2 10 10 SSE 14 22 29.84 1011 10 16.0934 N/A
1:53 pm 13:53 Sunny 104 40 37 2.8 10 10 SSW 20 31 29.82 1010 10 16.0934 N/A
2:05 pm 14:05 Sunny 103 39.4 37 2.8 10 10 SW 13 20 29.68 1005 10 16.0934 N/A
2:53 pm 14:53 Sunny 102 38.9 38 3.3 11 11 N N/A 29.8 1009 10 16.0934 N/A
3:53 pm 15:53 Sunny 104 40 39 3.9 11 11 WSW 9 15 29.78 1008 10 16.0934 N/A
4:53 pm 16:53 Sunny 104 40 40 4.4 11 11 S 8 13 29.76 1008 10 16.0934 N/A
5:53 pm 17:53 Sunny 103 39.4 41 5 12 12 SW 8 13 29.75 1007 10 16.0934 N/A
6:53 pm 18:53 Sunny 102 38.9 39 3.9 11 11 WSW 12 19 29.74 1007 10 16.0934 N/A
7:53 pm 19:53 Clear 100 37.8 37 2.8 11 11 WSW 9 15 29.76 1008 10 16.0934 N/A
8:53 pm 20:53 Clear 98 36.7 37 2.8 12 12 W 5 7 29.78 1008 10 16.0934 N/A
9:53 pm 21:53 Clear 96 35.6 38 3.3 13 13 SSW 6 9 29.8 1009 10 16.0934 N/A
10:53 pm 22:53 Clear 94 34.4 42 5.6 17 17 WSW 3 6 29.8 1009 10 16.0934 N/A
11:53 pm 23:53 Clear 92 33.3 44 6.7 19 19 SW 6 9 29.8 1009 10 16.0934 N/A

Powered by AerisWeather